utc_time,unix_time,temp,cond,salinity,tds,chla_rfu,chla_ugl,bga_rfu,bga_ugl,odo,sat,nitrate_um,nitrogen_mg,stage,area,discharge,total_discharge
2019-09-01 00:00:02+00:00,1567296002,24.881,41123.48,26.39,26.79,,,,,10.57,148.29,56.139,0.78632,,,,
2019-09-01 00:20:01+00:00,1567297201,24.955,42299.47,27.18,27.52,,,,,9.95,140.37,53.721,0.75244,,,,
2019-09-01 00:40:02+00:00,1567298402,24.876,43957.41,28.42,28.64,,,,,9.4,133.45,61.073,0.85544,,,,
2019-09-01 01:00:02+00:00,1567299602,24.834,44696.46,28.98,29.15,,,,,9.05,128.78,46.523,0.65162,,,,
2019-09-01 01:20:01+00:00,1567300801,24.803,41882.79,26.98,27.33,,,,,8.83,124.11,47.177,0.66078,,,,
2019-09-01 01:40:02+00:00,1567302002,24.356,43674.14,28.54,28.74,,,,,7.71,108.54,47.56,0.66617,,,,
2019-09-01 02:00:01+00:00,1567303201,24.074,43148.71,28.34,28.55,,,,,7.78,108.78,44.71,0.6262,,,,
2019-09-01 02:20:02+00:00,1567304402,24.454,43435.61,28.31,28.53,,,,,6.46,90.99,38.453,0.5386,,,,
2019-09-01 02:40:02+00:00,1567305602,25.131,44391.67,28.57,28.78,,,,,6.72,95.87,31.642,0.4432,,,,
2019-09-01 03:00:01+00:00,1567306801,25.057,44438.79,28.65,28.85,,,,,7.49,106.72,34.713,0.48622,,,,
2019-09-01 03:20:02+00:00,1567308002,25.157,44629,28.73,28.92,,,,,9.34,133.49,33.238,0.46555,,,,
2019-09-01 03:40:02+00:00,1567309202,24.777,44962.38,29.21,29.35,,,,,6.39,90.93,34.472,0.48286,,,,
2019-09-01 04:00:01+00:00,1567310401,25.126,45766.73,29.57,29.68,,,,,8.07,115.73,32.753,0.45877,,,,
2019-09-01 04:20:01+00:00,1567311601,24.215,45127.43,29.7,29.78,,,,,7.55,106.67,34.46,0.48266,,,,
2019-09-01 04:40:02+00:00,1567312802,23.91,44233.03,29.24,29.36,,,,,7.33,102.75,37.093,0.51955,,,,
2019-09-01 05:00:01+00:00,1567314001,23.668,44081.93,29.29,29.4,,,,,9.08,126.86,34.955,0.48958,,,,
2019-09-01 05:20:01+00:00,1567315201,22.314,42359.98,28.89,29.02,,,,,10.08,137.19,41.131,0.57612,,,,
2019-09-01 05:40:02+00:00,1567316402,22.244,41177.63,28.04,28.25,,,,,10.02,135.49,44.771,0.62711,,,,
2019-09-01 06:00:02+00:00,1567317602,21.151,38412.76,26.62,26.95,,,,,9.63,126.58,52.753,0.73893,,,,
2019-09-01 06:20:02+00:00,1567318802,21.125,38310.7,26.55,26.89,,,,,9.48,124.56,57.754,0.80894,,,,
2019-09-01 06:40:02+00:00,1567320002,20.787,37808.75,26.38,26.73,,,,,8.82,115.04,66.098,0.92582,,,,
2019-09-01 07:00:01+00:00,1567321201,20.16,37032.93,26.16,26.52,,,,,8.2,105.48,68.337,0.95717,,,,
2019-09-01 07:20:01+00:00,1567322401,19.8,36685.08,26.11,26.47,,,,,7.13,91.15,73.501,1.0295,,,,
2019-09-01 07:40:01+00:00,1567323601,19.711,35997.55,25.62,26.03,,,,,7.25,92.19,71.161,0.99671,,,,
2019-09-01 08:00:01+00:00,1567324801,19.878,36545.49,25.95,26.33,,,,,6.98,89.22,72.438,1.01462,,,,
2019-09-01 08:20:01+00:00,1567326001,19.509,36026.14,25.77,26.16,,,,,6.4,81.16,68.543,0.96005,,,,
2019-09-01 08:40:01+00:00,1567327201,20.311,37571.56,26.49,26.82,,,,,6.22,80.5,65.01,0.91056,,,,
2019-09-01 09:00:02+00:00,1567328402,20.05,37711.17,26.76,27.07,,,,,5.71,73.63,64.591,0.90472,,,,
2019-09-01 09:20:02+00:00,1567329602,20.065,37706.2,26.75,27.06,,,,,5.39,69.55,64.515,0.90364,,,,
2019-09-01 09:40:01+00:00,1567330801,19.829,37239.72,26.53,26.86,,,,,5.45,69.86,65.485,0.91724,,,,
2019-09-01 10:00:01+00:00,1567332001,19.669,37282.09,26.66,26.98,,,,,5.16,66,65.327,0.91501,,,,
2019-09-01 10:20:01+00:00,1567333201,18.962,36115.29,26.18,26.54,,,,,4.21,53.01,64.238,0.89976,,,,
2019-09-01 10:40:03+00:00,1567334403,19.081,36008.7,26.02,26.39,,,,,3.89,49.03,62.937,0.88155,,,,
2019-09-01 11:00:02+00:00,1567335602,19.282,36607.95,26.37,26.71,,,,,2.94,37.22,64.001,0.89645,,,,
2019-09-01 11:20:01+00:00,1567336801,19.294,36859.25,26.56,26.89,,,,,3.61,45.78,61.661,0.8637,,,,
2019-09-01 11:40:01+00:00,1567338001,19.147,35378.57,25.47,25.89,,,,,1.6,20.14,59.435,0.83249,,,,
2019-09-01 12:00:01+00:00,1567339201,19.007,35536.42,25.68,26.08,,,,,1.23,15.39,58.095,0.81374,,,,
2019-09-01 12:20:02+00:00,1567340402,19.995,38545.66,27.45,27.7,,,,,3.05,39.46,37.378,0.52356,,,,
2019-09-01 12:40:01+00:00,1567341601,20.43,39408.56,27.85,28.07,,,,,2.65,34.59,33.06,0.46305,,,,
2019-09-01 13:00:01+00:00,1567342801,20.882,40830.58,28.67,28.81,,,,,2.11,27.93,26.427,0.37015,,,,
2019-09-01 13:20:01+00:00,1567344001,20.871,41803.07,29.43,29.5,,,,,1.41,18.76,24.541,0.34371,,,,
2019-09-01 13:40:01+00:00,1567345201,20.909,42671.76,30.09,30.09,,,,,0.79,10.6,22.405,0.31383,,,,
2019-09-01 14:00:02+00:00,1567346402,20.9,46826.9,33.39,33.02,,,,,0.58,7.87,20.877,0.29242,,,,
2019-09-01 14:20:01+00:00,1567347601,20.949,45226.73,32.08,31.86,,,,,0.48,6.55,19.327,0.2707,,,,
2019-09-01 14:40:02+00:00,1567348802,20.917,44888.93,31.84,31.65,,,,,0.43,5.83,21.767,0.3049,,,,
2019-09-01 15:00:02+00:00,1567350002,20.804,44200.92,31.37,31.23,,,,,0.41,5.57,21.471,0.30075,,,,
2019-09-01 15:20:01+00:00,1567351201,20.822,42970.82,30.39,30.35,,,,,0.41,5.45,23.646,0.33121,,,,
2019-09-01 15:40:02+00:00,1567352402,20.733,42880.12,30.38,30.35,,,,,0.4,5.35,20.52,0.28745,,,,
2019-09-01 16:00:01+00:00,1567353601,20.771,42739.11,30.24,30.22,,,,,0.4,5.3,19.157,0.26833,,,,
2019-09-01 16:20:01+00:00,1567354801,20.799,42684.43,30.18,30.17,,,,,0.4,5.27,20.664,0.28943,,,,
2019-09-01 16:40:01+00:00,1567356001,20.911,42527.61,29.98,29.98,,,,,0.96,12.8,21.759,0.30478,,,,
2019-09-01 17:00:02+00:00,1567357202,,,,,,,,,,,20.721,0.29022,,,,
2019-09-01 17:20:01+00:00,1567358401,21.749,45271.82,31.52,31.37,,,,,0.39,5.35,23.919,0.33504,,,,
2019-09-01 17:40:01+00:00,1567359601,22.198,46809.3,32.39,32.15,,,,,0.92,12.8,19.356,0.27109,,,,
2019-09-01 18:00:02+00:00,1567360802,22.491,47100.16,32.39,32.16,,,,,1.47,20.45,22.155,0.3103,,,,
2019-09-01 18:20:01+00:00,1567362001,22.831,44072.49,29.84,29.89,,,,,5.17,71.38,22.327,0.31271,,,,
2019-09-01 18:40:01+00:00,1567363201,22.877,44384.39,30.05,30.07,,,,,4.42,61.2,23.262,0.32585,,,,
2019-09-01 19:00:01+00:00,1567364401,23.45,43693.55,29.14,29.27,,,,,5.68,78.88,26.809,0.37553,,,,
2019-09-01 19:20:01+00:00,1567365601,23.48,43361.13,28.88,29.03,,,,,5.07,70.41,32.291,0.4523,,,,
2019-09-01 19:40:02+00:00,1567366802,24.374,45459.77,29.84,29.91,,,,,8.06,114.24,33.686,0.47181,,,,
2019-09-01 20:00:01+00:00,1567368001,23.988,42778.27,28.12,28.35,,,,,7.21,100.61,37.979,0.53197,,,,
2019-09-01 20:20:01+00:00,1567369201,24.095,43645.02,28.69,28.87,,,,,8.18,114.66,44.437,0.62243,,,,
2019-09-01 20:40:01+00:00,1567370401,23.781,42445.36,28.01,28.25,,,,,8.34,115.88,52.274,0.73216,,,,
2019-09-01 21:00:01+00:00,1567371601,23.981,41813.01,27.42,27.72,,,,,9.12,126.7,57.954,0.81176,,,,
2019-09-01 21:20:01+00:00,1567372801,24.251,41872.97,27.3,27.61,,,,,9.23,128.76,59.657,0.83558,,,,
2019-09-01 21:40:02+00:00,1567374002,24.472,41607.07,26.97,27.32,,,,,8.3,115.94,62.871,0.88059,,,,
2019-09-01 22:00:01+00:00,1567375201,24.819,41234.16,26.5,26.9,,,,,8.78,123.14,68.267,0.9562,,,,
2019-09-01 22:20:01+00:00,1567376401,25.019,40741.45,26.03,26.47,,,,,8.76,122.99,62.013,0.86857,,,,
2019-09-01 22:40:01+00:00,1567377601,25.07,39940.65,25.44,25.93,,,,,9.78,136.98,63.648,0.89148,,,,
2019-09-01 23:00:02+00:00,1567378802,25.149,37077.07,23.38,24.03,,,,,10.3,142.7,63.607,0.89094,,,,
2019-09-01 23:20:01+00:00,1567380001,25.357,36182.51,22.66,23.36,,,,,9.19,127.23,67.682,0.94798,,,,
2019-09-01 23:40:02+00:00,1567381202,25.281,36636.52,23.01,23.69,,,,,9.88,136.91,64.352,0.90136,,,,
2019-09-02 00:00:02+00:00,1567382402,25.241,35224.49,22.05,22.79,,,,,9.26,127.54,71.854,1.00643,,,,
2019-09-02 00:20:02+00:00,1567383602,26.163,36494.72,22.48,23.21,,,,,10.83,151.92,46.481,0.65105,,,,
2019-09-02 00:40:02+00:00,1567384802,26.024,37382.17,23.15,23.83,,,,,10.84,152.39,45.496,0.63724,,,,
2019-09-02 01:00:02+00:00,1567386002,26.136,36993.72,22.83,23.54,,,,,12.31,173.04,38.206,0.53516,,,,
2019-09-02 01:20:02+00:00,1567387202,25.803,37806.73,23.56,24.2,,,,,11.15,156.41,39.321,0.55075,,,,
2019-09-02 01:40:02+00:00,1567388402,25.875,37572.86,23.36,24.02,,,,,11.57,162.4,33.007,0.46233,,,,
2019-09-02 02:00:02+00:00,1567389602,25.703,36686.82,22.83,23.53,,,,,11.14,155.37,35.794,0.50139,,,,
2019-09-02 02:20:01+00:00,1567390801,25.272,37695.14,23.75,24.38,,,,,11.5,159.97,33.55,0.46991,,,,
2019-09-02 02:40:01+00:00,1567392001,25.105,36088.09,22.72,23.41,,,,,10.8,149.07,31.996,0.44813,,,,
2019-09-02 03:00:01+00:00,1567393201,25.042,39362.34,25.05,25.56,,,,,9.81,137.04,32.296,0.45237,,,,
2019-09-02 03:20:02+00:00,1567394402,25.074,40532.59,25.86,26.31,,,,,10.04,140.95,30.4,0.42578,,,,
2019-09-02 03:40:01+00:00,1567395601,25.195,39924.26,25.36,25.85,,,,,9.97,139.84,31.516,0.44142,,,,
2019-09-02 04:00:02+00:00,1567396802,25.23,38292.51,24.19,24.78,,,,,10.2,142.27,31.271,0.43799,,,,
2019-09-02 04:20:02+00:00,1567398002,25.184,46001.05,29.7,29.8,,,,,10.05,144.42,30.164,0.42248,,,,
2019-09-02 04:40:01+00:00,1567399201,24.881,43574.62,28.14,28.39,,,,,10.11,143.27,27.821,0.38971,,,,
2019-09-02 05:00:01+00:00,1567400401,24.701,42570.27,27.53,27.83,,,,,9.96,140.17,30.707,0.43013,,,,
2019-09-02 05:20:01+00:00,1567401601,24.228,42389.14,27.69,27.97,,,,,9.86,137.82,32.664,0.45749,,,,
2019-09-02 05:40:01+00:00,1567402801,22.897,41912.49,28.17,28.38,,,,,10.6,145.11,33.921,0.47511,,,,
2019-09-02 06:00:02+00:00,1567404002,21.534,36906.15,25.24,25.69,,,,,9.72,127.67,48.898,0.68488,,,,
2019-09-02 06:20:01+00:00,1567405201,,,,,,,,,,,53.335,0.74706,,,,
2019-09-02 06:40:01+00:00,1567406401,21.607,35097.55,23.83,24.39,,,,,9.1,118.64,49.813,0.69775,,,,
2019-09-02 07:00:01+00:00,1567407601,21.417,34009.43,23.12,23.73,,,,,8.5,109.98,52.245,0.73177,,,,
2019-09-02 07:20:01+00:00,1567408801,20.365,32777.35,22.74,23.37,,,,,8.75,110.81,58.196,0.8151,,,,
2019-09-02 07:40:01+00:00,1567410001,20.335,32963.77,22.9,23.52,,,,,8.14,103.07,60.534,0.84786,,,,
2019-09-02 08:00:01+00:00,1567411201,20.555,36153.16,25.24,25.68,,,,,7.13,91.94,59.209,0.82931,,,,
2019-09-02 08:20:01+00:00,1567412401,20.492,33869.09,23.51,24.09,,,,,6.97,88.9,59.061,0.82724,,,,
2019-09-02 08:40:02+00:00,1567413602,20.336,31705.99,21.94,22.62,,,,,6.88,86.72,60.737,0.85073,,,,
2019-09-02 09:00:01+00:00,1567414801,20.072,31190.16,21.68,22.38,,,,,5.93,74.19,64.861,0.9085,,,,
2019-09-02 09:20:01+00:00,1567416001,19.887,29802.93,20.71,21.47,,,,,5.41,67.1,68.112,0.95401,,,,
2019-09-02 09:40:01+00:00,1567417201,19.761,31696.53,22.23,22.89,,,,,5.18,64.6,69.997,0.98043,,,,
2019-09-02 10:00:01+00:00,1567418401,19.554,31601.65,22.27,22.93,,,,,4.36,54.19,67.947,0.95172,,,,
2019-09-02 10:20:02+00:00,1567419602,19.491,31424.43,22.16,22.83,,,,,5.45,67.7,64.439,0.90257,,,,
2019-09-02 10:40:01+00:00,1567420801,19.581,31538.48,22.2,22.87,,,,,4.7,58.48,58.596,0.82074,,,,
2019-09-02 11:00:02+00:00,1567422002,19.483,30044.43,21.1,21.83,,,,,3.66,45.13,57.879,0.81069,,,,
2019-09-02 11:20:02+00:00,1567423202,19.405,30315.72,21.35,22.06,,,,,3.5,43.13,56.243,0.78777,,,,
2019-09-02 11:40:01+00:00,1567424401,19.205,30457.34,21.56,22.26,,,,,3.3,40.64,60.507,0.84748,,,,
2019-09-02 12:00:02+00:00,1567425602,19.123,31029.79,22.05,22.72,,,,,3.03,37.34,61.299,0.85859,,,,
2019-09-02 12:20:02+00:00,1567426802,19.08,31181.74,22.19,22.85,,,,,2.8,34.51,56.669,0.79373,,,,
2019-09-02 12:40:02+00:00,1567428002,19.021,30780.02,21.91,22.59,,,,,2.7,33.15,53.482,0.74911,,,,
2019-09-02 13:00:02+00:00,1567429202,18.934,30772.13,21.95,22.62,,,,,2.29,28.07,51.165,0.71662,,,,
2019-09-02 13:20:02+00:00,1567430402,18.87,30498.96,21.77,22.45,,,,,1.96,23.98,51.166,0.71663,,,,
2019-09-02 13:40:01+00:00,1567431601,18.867,31046.3,22.2,22.86,,,,,1.75,21.53,51.602,0.72277,,,,
2019-09-02 14:00:02+00:00,1567432802,18.796,30578.83,21.87,22.55,,,,,0.84,10.33,49.697,0.69611,,,,
2019-09-02 14:20:01+00:00,1567434001,19.421,31491.11,22.25,22.91,,,,,2.93,36.35,37.786,0.52923,,,,
2019-09-02 14:40:01+00:00,1567435201,19.124,30847.1,21.91,22.59,,,,,0.92,11.29,40.251,0.56381,,,,
2019-09-02 15:00:01+00:00,1567436401,18.993,31503.92,22.49,23.13,,,,,0.99,12.16,41.264,0.57799,,,,
2019-09-02 15:20:02+00:00,1567437602,18.99,32891.32,23.59,24.15,,,,,0.8,9.87,38.47,0.53883,,,,
2019-09-02 15:40:02+00:00,1567438802,19.156,32358.94,23.08,23.68,,,,,0.99,12.34,39.673,0.55572,,,,
2019-09-02 16:00:00+00:00,1567440000,19.249,32942.91,23.48,24.06,,,,,0.57,7.13,34.312,0.4806,,,,
2019-09-02 16:20:02+00:00,1567441202,19.278,32981.36,23.5,24.07,,,,,0.58,7.19,33.868,0.47438,,,,
2019-09-02 16:40:01+00:00,1567442401,19.738,33500.14,23.65,24.21,,,,,0.76,9.54,34.842,0.48801,,,,
2019-09-02 17:00:01+00:00,1567443601,20.32,33543.34,23.36,23.94,,,,,1.17,14.91,33.827,0.47382,,,,
2019-09-02 17:20:01+00:00,1567444801,,,,,,,,,,,34.468,0.48279,,,,
2019-09-02 17:40:01+00:00,1567446001,20.891,32977.24,22.62,23.26,,,,,4.59,58.6,32.963,0.46172,,,,
2019-09-02 18:00:02+00:00,1567447202,21.043,32615.49,22.26,22.93,,,,,5.82,74.43,31.898,0.44678,,,,
2019-09-02 18:20:01+00:00,1567448401,21.368,33077.12,22.44,23.1,,,,,7.01,90.33,28.177,0.39466,,,,
2019-09-02 18:40:01+00:00,1567449601,21.668,34601.98,23.43,24.02,,,,,7.82,101.88,26.356,0.36919,,,,
2019-09-02 19:00:01+00:00,1567450801,22.05,33830.02,22.65,23.3,,,,,8.73,113.94,27.249,0.38169,,,,
2019-09-02 19:20:02+00:00,1567452002,22.29,34514.05,23.03,23.66,,,,,9.43,123.9,27.133,0.38006,,,,
2019-09-02 19:40:01+00:00,1567453201,22.382,34752.63,23.16,23.78,,,,,8.65,113.89,28.72,0.40227,,,,
2019-09-02 20:00:01+00:00,1567454401,23.043,34613.89,22.71,23.37,,,,,9.85,130.99,26.882,0.3765,,,,
2019-09-02 20:20:01+00:00,1567455601,23.503,34392.86,22.32,23.01,,,,,11.3,151.23,26.245,0.36761,,,,
2019-09-02 20:40:02+00:00,1567456802,23.839,35606.69,23.02,23.67,,,,,12.4,167.58,28.711,0.40211,,,,
2019-09-02 21:00:01+00:00,1567458001,23.52,35542.5,23.14,23.77,,,,,11.74,157.92,35.649,0.49933,,,,
2019-09-02 21:20:02+00:00,1567459202,23.056,35175.13,23.11,23.75,,,,,10.94,145.92,38.87,0.54445,,,,
2019-09-02 21:40:02+00:00,1567460402,,,,,,,,,,,39.973,0.55989,,,,
2019-09-02 22:00:02+00:00,1567461602,23.358,33957.76,22.08,22.79,,,,,11.23,149.59,41.838,0.58601,,,,
2019-09-02 22:20:01+00:00,1567462801,23.473,34108.83,22.13,22.84,,,,,11.42,152.48,40.515,0.56748,,,,
2019-09-02 22:40:01+00:00,1567464001,23.544,34093.96,22.08,22.79,,,,,11.41,152.51,41.926,0.58727,,,,
2019-09-02 23:00:01+00:00,1567465201,23.616,32799.91,21.13,21.9,,,,,11.57,154.05,43.329,0.60691,,,,
2019-09-02 23:20:01+00:00,1567466401,23.606,34155.88,22.1,22.81,,,,,12.02,160.91,42.373,0.59347,,,,
2019-09-02 23:40:01+00:00,1567467601,23.601,34178.41,22.12,22.83,,,,,12.21,163.41,48.028,0.6727,,,,
2019-09-03 00:00:01+00:00,1567468801,23.573,34649.96,22.47,23.15,,,,,11.69,156.78,50.31,0.70466,,,,
2019-09-03 00:20:01+00:00,1567470001,23.511,33369.4,21.58,22.33,,,,,12.93,172.23,60.9,0.85303,,,,
2019-09-03 00:40:01+00:00,1567471201,23.507,33264.84,21.51,22.26,,,,,10.9,145.19,65.933,0.92353,,,,
2019-09-03 01:00:01+00:00,1567472401,23.544,33278.95,21.5,22.25,,,,,11.29,150.5,52.944,0.74153,,,,
2019-09-03 01:20:02+00:00,1567473602,23.526,31949.77,20.56,21.37,,,,,11.53,152.8,44.103,0.61777,,,,
2019-09-03 01:40:01+00:00,1567474801,23.408,30835.5,19.83,20.67,,,,,11.33,149.14,39.567,0.55421,,,,
2019-09-03 02:00:02+00:00,1567476002,23.261,29921.78,19.25,20.12,,,,,12.07,157.93,41.986,0.58808,,,,
2019-09-03 02:20:02+00:00,1567477202,23.136,29485.66,18.99,19.87,,,,,10.55,137.53,41.109,0.57579,,,,
2019-09-03 02:40:01+00:00,1567478401,23.006,29094.22,18.77,19.66,,,,,11.16,144.99,41.02,0.57456,,,,
2019-09-03 03:00:01+00:00,1567479601,22.86,30339.33,19.72,20.56,,,,,10.68,139.16,38.839,0.54399,,,,
2019-09-03 03:20:01+00:00,1567480801,22.71,29776.68,19.38,20.24,,,,,10.89,141.16,39.636,0.55514,,,,
2019-09-03 03:40:01+00:00,1567482001,22.618,30174.84,19.71,20.55,,,,,9.39,121.78,40.876,0.57252,,,,
2019-09-03 04:00:01+00:00,1567483201,22.441,30571.24,20.07,20.89,,,,,9.05,117.24,40.083,0.56141,,,,
2019-09-03 04:20:02+00:00,1567484402,22.278,30243.36,19.91,20.74,,,,,8.72,112.54,45.601,0.63873,,,,
2019-09-03 04:40:02+00:00,1567485602,22.108,29853.12,19.71,20.54,,,,,8.46,108.73,40.077,0.56135,,,,
2019-09-03 05:00:01+00:00,1567486801,21.932,29156.13,19.28,20.13,,,,,8.99,114.92,40.199,0.56306,,,,
2019-09-03 05:20:01+00:00,1567488001,21.789,29554.21,19.63,20.47,,,,,8.12,103.68,39.581,0.55442,,,,
2019-09-03 05:40:02+00:00,1567489202,21.674,29843.87,19.9,20.71,,,,,8.15,104.04,38.054,0.53299,,,,
2019-09-03 06:00:02+00:00,1567490402,21.553,28508.84,18.97,19.84,,,,,8.3,105.09,41.696,0.58402,,,,
2019-09-03 06:20:01+00:00,1567491601,21.224,28990.93,19.47,20.31,,,,,8.01,101.16,47.963,0.67177,,,,
2019-09-03 06:40:01+00:00,1567492801,20.876,29424.75,19.95,20.76,,,,,8.9,111.92,57.966,0.81194,,,,
2019-09-03 07:00:01+00:00,1567494001,20.431,31888.71,22.03,22.71,,,,,8.81,111.22,58.123,0.81412,,,,
2019-09-03 07:20:02+00:00,1567495202,20.152,31035.26,21.52,22.23,,,,,9.04,113.2,56.129,0.78618,,,,
2019-09-03 07:40:01+00:00,1567496401,20.027,31776.63,22.15,22.82,,,,,8.68,108.79,45.143,0.63229,,,,
2019-09-03 08:00:02+00:00,1567497602,19.958,32713.35,22.91,23.53,,,,,8.25,103.77,38.907,0.54499,,,,
2019-09-03 08:20:01+00:00,1567498801,19.897,30899.6,21.55,22.25,,,,,8.04,100.18,39.88,0.55858,,,,
2019-09-03 08:40:02+00:00,1567500002,19.605,30981.98,21.76,22.45,,,,,7.87,97.65,39.284,0.55026,,,,
2019-09-03 09:00:01+00:00,1567501201,19.473,31353.26,22.12,22.78,,,,,7.82,96.98,40.308,0.56457,,,,
2019-09-03 09:20:01+00:00,1567502401,19.316,31830.56,22.57,23.21,,,,,7.44,92.21,38.292,0.53635,,,,
2019-09-03 09:40:01+00:00,1567503601,19.156,30558.45,21.66,22.36,,,,,7.43,91.34,39.334,0.55093,,,,
2019-09-03 10:00:01+00:00,1567504801,19.403,31039.11,21.91,22.59,,,,,6.62,81.97,40.073,0.56128,,,,
2019-09-03 10:20:02+00:00,1567506002,19.274,30501.29,21.56,22.26,,,,,6.26,77.13,38.019,0.53253,,,,
2019-09-03 10:40:02+00:00,1567507202,19.151,30609.74,21.71,22.4,,,,,6.32,77.77,40.651,0.56936,,,,
2019-09-03 11:00:02+00:00,1567508402,19.166,30940.74,21.96,22.63,,,,,6.12,75.43,38.951,0.54559,,,,
2019-09-03 11:20:02+00:00,1567509602,19.117,32408.62,23.14,23.73,,,,,4.31,53.49,38.087,0.53348,,,,
2019-09-03 11:40:01+00:00,1567510801,19.085,26951.2,18.9,19.75,,,,,3.89,47.02,38.065,0.53315,,,,
2019-09-03 12:00:01+00:00,1567512001,19.056,27005.82,18.96,19.8,,,,,4.31,52.11,38.544,0.53989,,,,
2019-09-03 12:20:01+00:00,1567513201,19.071,26808.4,18.8,19.65,,,,,3.79,45.75,39.884,0.55861,,,,
2019-09-03 12:40:01+00:00,1567514401,19.032,26825.29,18.83,19.68,,,,,3.86,46.58,40.085,0.56146,,,,
2019-09-03 13:00:01+00:00,1567515601,18.985,26818.42,18.84,19.69,,,,,3.82,46.1,44.178,0.61879,,,,
2019-09-03 13:20:01+00:00,1567516801,18.995,26453.96,18.56,19.42,,,,,3.39,40.8,46.039,0.64482,,,,
2019-09-03 13:40:01+00:00,1567518001,18.982,26166.86,18.34,19.22,,,,,2.94,35.35,43.632,0.61115,,,,
2019-09-03 14:00:01+00:00,1567519201,18.96,26200.66,18.38,19.25,,,,,2.92,35.13,42.166,0.5906,,,,
2019-09-03 14:20:01+00:00,1567520401,18.953,25885.9,18.14,19.02,,,,,3.3,39.63,43.031,0.60273,,,,
2019-09-03 14:40:02+00:00,1567521602,18.927,26371.05,18.52,19.39,,,,,2.96,35.55,42.459,0.59472,,,,
2019-09-03 15:00:01+00:00,1567522801,18.904,26501.04,18.63,19.5,,,,,2.28,27.42,43.391,0.60776,,,,
2019-09-03 15:20:02+00:00,1567524002,18.898,26400.64,18.56,19.42,,,,,1.98,23.83,46.437,0.65044,,,,
2019-09-03 15:40:01+00:00,1567525201,18.899,26850.01,18.91,19.75,,,,,1.73,20.88,41.509,0.5814,,,,
2019-09-03 16:00:01+00:00,1567526401,18.949,26833.65,18.87,19.72,,,,,1.56,18.8,,,,,,
2019-09-03 16:20:01+00:00,1567527601,19.001,29592.05,20.99,21.72,,,,,0.94,11.53,,,,,,
2019-09-03 16:40:02+00:00,1567528802,19.084,27916.19,19.64,20.46,,,,,1.06,12.82,,,,,,
2019-09-03 17:00:01+00:00,1567530001,19.21,29586.21,20.88,21.62,,,,,1.1,13.49,,,,,,
2019-09-03 17:20:01+00:00,1567531201,19.603,27160.07,18.83,19.68,,,,,4.01,48.93,40.112,0.56185,,,,
2019-09-03 17:40:01+00:00,1567532401,19.719,27707.24,19.19,20.03,,,,,3.99,48.88,38.05,0.53294,,,,
2019-09-03 18:00:02+00:00,1567533602,20.38,27790.69,18.96,19.81,,,,,3.48,43.16,37.505,0.52533,,,,
2019-09-03 18:20:01+00:00,1567534801,20.052,31516.32,21.94,22.62,,,,,5.08,63.62,35.764,0.50093,,,,
2019-09-03 18:40:01+00:00,1567536001,20.722,32432.31,22.29,22.96,,,,,5.55,70.62,35.2,0.49303,,,,
2019-09-03 19:00:02+00:00,1567537202,21.313,32031.79,21.69,22.4,,,,,6.86,87.95,34.179,0.47876,,,,
2019-09-03 19:20:02+00:00,1567538402,22.568,34024.69,22.53,23.19,,,,,8.75,115.29,30.6,0.4286,,,,
2019-09-03 19:40:01+00:00,1567539601,22.098,34148.19,22.86,23.5,,,,,9.39,122.87,27.399,0.38376,,,,
2019-09-03 20:00:01+00:00,1567540801,21.909,36242.71,24.52,25.04,,,,,8.63,113.67,33.076,0.46329,,,,
2019-09-03 20:20:01+00:00,1567542001,22.189,36428.63,24.5,25.02,,,,,9.55,126.32,33.396,0.46777,,,,
2019-09-03 20:40:01+00:00,1567543201,22.096,35349.07,23.75,24.33,,,,,10.07,132.4,40.633,0.56916,,,,
2019-09-03 21:00:02+00:00,1567544402,22.196,28909.87,18.98,19.85,,,,,10.5,134.6,49.568,0.69429,,,,
2019-09-03 21:20:02+00:00,1567545602,22.446,31787.65,20.95,21.72,,,,,11.04,143.83,56.423,0.79031,,,,
2019-09-03 21:40:01+00:00,1567546801,22.522,31131.8,20.44,21.24,,,,,11.78,153.22,58.313,0.81679,,,,
2019-09-03 22:00:02+00:00,1567548002,22.669,29852.9,19.46,20.31,,,,,11.95,154.85,65.762,0.9211,,,,
2019-09-03 22:20:02+00:00,1567549202,22.971,29915.55,19.37,20.23,,,,,12.49,162.7,73.983,1.03628,,,,
2019-09-03 22:40:02+00:00,1567550402,23.327,30093.27,19.34,20.21,,,,,13.53,177.29,74.227,1.03969,,,,
2019-09-03 23:00:01+00:00,1567551601,23.349,29767.02,19.1,19.98,,,,,13.49,176.71,69.375,0.97173,,,,
2019-09-03 23:20:01+00:00,1567552801,23.551,30199.44,19.32,20.19,,,,,14.15,186.18,69.43,0.97249,,,,
2019-09-03 23:40:02+00:00,1567554002,23.542,33279,21.5,22.25,,,,,13.71,182.72,71.864,1.00656,,,,
2019-09-04 00:00:01+00:00,1567555201,23.731,30430.76,19.4,20.27,,,,,13.93,184.02,64.924,0.90936,,,,
2019-09-04 00:20:02+00:00,1567556402,23.833,29201.51,18.5,19.41,,,,,13.25,174.42,63.514,0.8896,,,,
2019-09-04 00:40:01+00:00,1567557601,24.152,29283.29,18.42,19.35,,,,,11.79,156.12,72.093,1.00978,,,,
2019-09-04 01:00:01+00:00,1567558801,24.175,28979.96,18.21,19.14,,,,,11.2,148.11,73.59,1.03073,,,,
2019-09-04 01:20:02+00:00,1567560002,24.182,28742.06,18.04,18.98,,,,,11.44,151.12,64.669,0.90584,,,,
2019-09-04 01:40:02+00:00,1567561202,24.07,27443.99,17.19,18.16,,,,,11.97,157.03,61.368,0.85957,,,,
2019-09-04 02:00:01+00:00,1567562401,23.941,28138.68,17.72,18.67,,,,,11.55,151.67,62.38,0.87372,,,,
2019-09-04 02:20:01+00:00,1567563601,,,,,,,,,,,55.135,0.77227,,,,
2019-09-04 02:40:01+00:00,1567564801,23.831,28817.91,18.23,19.16,,,,,10.26,134.89,52.232,0.7316,,,,
2019-09-04 03:00:01+00:00,1567566001,23.73,29995.81,19.1,19.98,,,,,11.3,149.03,41.48,0.58101,,,,
2019-09-04 03:20:02+00:00,1567567202,23.609,30510.56,19.51,20.37,,,,,11.16,147.25,40.942,0.57346,,,,
2019-09-04 03:40:02+00:00,1567568402,23.105,28429.63,18.26,19.17,,,,,11.56,149.97,45.546,0.63794,,,,
2019-09-04 04:00:01+00:00,1567569601,22.793,29595.38,19.22,20.08,,,,,11.12,144.28,51.044,0.71498,,,,
2019-09-04 04:20:01+00:00,1567570801,22.487,29199.28,19.07,19.94,,,,,11.05,142.46,48.804,0.68362,,,,
2019-09-04 04:40:01+00:00,1567572001,22.221,29470.35,19.38,20.23,,,,,10.14,130.37,48.115,0.67392,,,,
2019-09-04 05:00:02+00:00,1567573202,22.023,27459.27,18.01,18.92,,,,,8.72,110.8,49.105,0.6878,,,,
2019-09-04 05:20:01+00:00,1567574401,21.852,27940.07,18.43,19.32,,,,,10.08,127.97,54.332,0.76099,,,,
2019-09-04 05:40:01+00:00,1567575601,21.65,27144.89,17.94,18.85,,,,,9.93,125.24,54.073,0.75737,,,,
2019-09-04 06:00:01+00:00,1567576801,21.448,28500.46,19.01,19.87,,,,,8.4,106.16,52.248,0.73182,,,,
2019-09-04 06:20:01+00:00,1567578001,21.318,27355.12,18.23,19.13,,,,,8.79,110.37,54.386,0.76179,,,,
2019-09-04 06:40:01+00:00,1567579201,21.211,26554.49,17.69,18.61,,,,,8.05,100.5,55.663,0.77965,,,,
2019-09-04 07:00:01+00:00,1567580401,21.098,28150.92,18.91,19.77,,,,,8.18,102.69,49.095,0.68763,,,,
2019-09-04 07:20:01+00:00,1567581601,20.965,30650.58,20.83,21.59,,,,,7.8,98.75,50.453,0.70667,,,,
2019-09-04 07:40:02+00:00,1567582802,20.888,28029.06,18.91,19.77,,,,,6.52,81.56,54.309,0.76068,,,,